ATLAS 5 CENTAUR DEB, 52973

Orbit data source: Space-Track

ATLAS 5 CENTAUR DEB, 52973 is space debris in HEO originally from a launch on Wed, 17 Oct 2018 UTC launched from the Air Force Eastern Test Range (AFETR). Debris objects in space refer to the collection of defunct objects orbiting the Earth. Examples of debris include non-operational satellites, rocket bodies, and fragments generated from explosions, collisions, or faulty payload assembly.

Loading next visibility...
Identifier
52973, 2018-079GX
Orbit
HEO
Country
Flag of USUS
Related business
Flag of USUnited Launch Alliance/Lockheed Martin (US)
Manufacturer
ULA Decatur
Mission
Spacecraft
Bus & Motor
Unknown
Mass
Unknown
Launch date (UTC)
2018-10-17 (8 years ago)
Launch vehicle
Unknown
Launch site
Air Force Eastern Test Range (AFETR)
Object type
Payload
Rocket body
Debris
Shape & HBR
Unknown shape, 1.1 m
Radar Cross Section
RCS unknown

Expand to show TLE details & history
Last TLE update: 1 day ago

TLE from 1 day ago
0 ATLAS 5 CENTAUR DEB
1 52973U 18079GX  26150.55109998 -.00000105  00000-0  00000+0 0  9997
2 52973  12.7969  70.3384 4512968 241.2364  66.2866  1.71411159 30124
Epoch: 2026-05-30T13:13Z
TLE epoch observation values (Epoch: 2026-05-30T13:13:35.038Z)
Latitude
-0.00001°
Longitude
-16.24282°
Altitude
23,641.255 km
Speed
3.611 km/s
True Right ascension
04h 40m 52s
True Declination
0° 00' 00"
Sunlit
Object was in daylight at epoch
Visualization orbit readout
Latitude
Unknown
Longitude
Unknown
Altitude
Unknown
Speed
Unknown
Apparent Right ascension
Unknown
Apparent Declination
Unknown
Sunlit
N/A
Visualization observer readout
Local Sidereal Time
22:42:44
Azimuth
Unknown
Elevation
Unknown
Doppler factor
Unknown
Orbital elements
Apogee altitude
36,426.842 km
Perigee altitude
9,805.478 km
Semi-major axis
29,494.297 km
Eccentricity
0.4513
Inclination
12.7969°
RAAN
70.3384°
Arg. of periapsis
241.2364°
True anomaly
118.70857°
Mean anomaly
66.2866°
Eccentric anomaly
92.1262°
Mean motion
0.42849 °/min
Orbital period
840.17 mins
BSTAR
0
Loading maneuver chart data...
Computing Atmospheric mass density...

Documentation

Showing up to 5 results
|